Total_Precipitation_Accumulation
0.00 0.00 0.00 0.00 0.00 0.00 0.01 0.04 0.05 0.06 0.05 0.06 0.09 0.10 0.10 0.09 0.09 0.10 0.09 0.06 0.02 0.00 0.00 0.00 0.00 0.00 0.00 0.00 0.00 0.00 0.00 0.00 0.00 0.08 0.05 0.00 0.00 0.00 0.00 0.00 0.00 0.00 0.00 0.00 0.00 0.00 0.00
0.00 0.00 0.00 0.00 0.00 0.00 0.00 0.01 0.07 0.09 0.07 0.08 0.06 0.07 0.09 0.09 0.09 0.09 0.08 0.10 0.05 0.00 0.00 0.00 0.00 0.00 0.00 0.00 0.00 0.00 0.00 0.00 0.00 0.02 0.05 0.02 0.01 0.00 0.00 0.00 0.00 0.00 0.00 0.00 0.00 0.00 0.00
0.00 0.00 0.00 0.00 0.00 0.00 0.00 0.00 0.02 0.06 0.09 0.09 0.07 0.08 0.08 0.08 0.10 0.10 0.09 0.10 0.10 0.03 0.00 0.00 0.00 0.00 0.00 0.00 0.00 0.00 0.00 0.00 0.00 0.02 0.04 0.04 0.02 0.01 0.01 0.00 0.00 0.00 0.00 0.00 0.00 0.00 0.00
0.00 0.01 0.01 0.00 0.00 0.01 0.01 0.01 0.01 0.02 0.06 0.08 0.10 0.09 0.09 0.12 0.14 0.13 0.12 0.14 0.12 0.06 0.00 0.00 0.01 0.00 0.00 0.00 0.00 0.00 0.00 0.00 0.00 0.00 0.03 0.05 0.03 0.03 0.03 0.01 0.00 0.00 0.00 0.00 0.00 0.00 0.00
0.01 0.01 0.00 0.00 0.01 0.02 0.02 0.02 0.01 0.01 0.04 0.10 0.13 0.11 0.10 0.13 0.17 0.16 0.13 0.21 0.35 0.23 0.06 0.03 0.00 0.00 0.00 0.00 0.00 0.00 0.00 0.00 0.00 0.00 0.00 0.02 0.05 0.01 0.01 0.01 0.00 0.00 0.00 0.00 0.00 0.00 0.00
0.01 0.01 0.01 0.01 0.02 0.03 0.03 0.03 0.02 0.02 0.03 0.04 0.10 0.13 0.14 0.15 0.20 0.22 0.23 0.29 0.51 0.39 0.13 0.06 0.02 0.00 0.00 0.00 0.00 0.00 0.00 0.00 0.00 0.00 0.00 0.00 0.00 0.00 0.00 0.00 0.00 0.00 0.00 0.00 0.00 0.00 0.00
0.01 0.01 0.02 0.02 0.03 0.03 0.04 0.04 0.04 0.05 0.04 0.05 0.09 0.13 0.16 0.22 0.32 0.32 0.48 0.90 0.97 0.55 0.12 0.01 0.01 0.00 0.00 0.00 0.00 0.00 0.00 0.00 0.00 0.00 0.00 0.00 0.00 0.00 0.00 0.00 0.00 0.00 0.00 0.00 0.00 0.00 0.00
0.02 0.02 0.02 0.04 0.05 0.05 0.05 0.04 0.06 0.07 0.09 0.09 0.11 0.14 0.19 0.26 0.30 0.55 0.83 0.81 0.48 0.15 0.05 0.00 0.00 0.00 0.00 0.00 0.00 0.00 0.00 0.00 0.00 0.00 0.00 0.00 0.00 0.00 0.00 0.00 0.00 0.00 0.00 0.00 0.00 0.00 0.00
0.02 0.02 0.03 0.05 0.04 0.05 0.04 0.06 0.09 0.09 0.13 0.12 0.09 0.11 0.20 0.25 0.48 0.70 0.73 0.48 0.17 0.17 0.08 0.01 0.00 0.00 0.00 0.00 0.00 0.00 0.00 0.00 0.00 0.00 0.00 0.00 0.00 0.00 0.00 0.00 0.00 0.00 0.00 0.00 0.00 0.00 0.00
0.02 0.02 0.03 0.04 0.05 0.05 0.04 0.09 0.12 0.18 0.17 0.10 0.07 0.11 0.26 0.38 0.70 0.82 0.68 0.42 0.39 0.31 0.13 0.01 0.00 0.00 0.00 0.00 0.00 0.00 0.00 0.00 0.00 0.00 0.00 0.00 0.00 0.00 0.00 0.00 0.00 0.00 0.00 0.00 0.00 0.00 0.00
0.02 0.03 0.06 0.07 0.07 0.04 0.09 0.16 0.20 0.16 0.08 0.08 0.09 0.19 0.39 0.78 0.84 0.72 0.84 0.61 0.71 0.34 0.16 0.01 0.01 0.00 0.02 0.00 0.00 0.00 0.00 0.00 0.00 0.00 0.00 0.00 0.00 0.00 0.00 0.00 0.00 0.00 0.00 0.00 0.00 0.00 0.01
0.02 0.04 0.09 0.08 0.07 0.07 0.13 0.15 0.10 0.05 0.08 0.14 0.22 0.23 0.38 0.71 0.69 0.39 0.63 1.04 0.95 0.61 0.09 0.01 0.01 0.04 0.05 0.02 0.01 0.01 0.02 0.03 0.01 0.02 0.02 0.00 0.00 0.00 0.00 0.00 0.00 0.00 0.00 0.01 0.02 0.05 0.09
0.04 0.08 0.11 0.10 0.08 0.09 0.12 0.08 0.03 0.06 0.20 0.42 0.33 0.20 0.38 0.70 0.66 0.53 0.67 1.34 1.01 0.32 0.01 0.01 0.01 0.04 0.01 0.01 0.02 0.02 0.02 0.04 0.03 0.04 0.04 0.03 0.01 0.00 0.00 0.00 0.00 0.03 0.14 0.15 0.14 0.16 0.04
0.06 0.10 0.12 0.10 0.10 0.10 0.08 0.04 0.08 0.25 0.54 0.53 0.20 0.15 0.33 0.61 0.57 1.17 0.86 0.93 0.57 0.07 0.00 0.00 0.01 0.02 0.02 0.00 0.01 0.01 0.02 0.02 0.02 0.03 0.05 0.04 0.01 0.00 0.00 0.00 0.00 0.01 0.06 0.15 0.05 0.00 0.00
0.07 0.10 0.10 0.11 0.11 0.10 0.04 0.03 0.16 0.40 0.53 0.50 0.28 0.13 0.37 0.67 0.64 1.19 1.03 0.59 0.29 0.00 0.00 0.00 0.01 0.02 0.02 0.00 0.00 0.01 0.01 0.00 0.00 0.01 0.03 0.02 0.01 0.00 0.00 0.00 0.01 0.05 0.10 0.07 0.16 0.12 0.14
0.07 0.10 0.11 0.11 0.10 0.08 0.03 0.06 0.28 0.52 0.72 0.55 0.27 0.13 0.40 0.65 0.65 1.07 0.83 0.30 0.07 0.00 0.00 0.00 0.00 0.00 0.00 0.00 0.00 0.01 0.00 0.00 0.00 0.00 0.00 0.00 0.01 0.00 0.00 0.01 0.02 0.04 0.03 0.10 0.32 0.19 0.09
0.08 0.10 0.12 0.11 0.08 0.04 0.03 0.07 0.19 0.28 0.63 0.57 0.35 0.43 0.53 0.73 0.77 0.97 0.64 0.18 0.01 0.00 0.00 0.00 0.00 0.00 0.00 0.00 0.00 0.00 0.00 0.00 0.00 0.00 0.00 0.01 0.02 0.00 0.01 0.01 0.00 0.03 0.12 0.13 0.13 0.06 0.02
0.09 0.10 0.12 0.09 0.08 0.03 0.03 0.03 0.09 0.22 0.71 0.71 0.38 0.65 0.54 1.06 1.06 0.69 0.28 0.08 0.00 0.00 0.00 0.00 0.00 0.00 0.00 0.00 0.00 0.00 0.00 0.00 0.00 0.00 0.00 0.00 0.03 0.02 0.00 0.00 0.00 0.01 0.02 0.09 0.31 0.09 0.15
0.09 0.10 0.11 0.08 0.07 0.02 0.03 0.02 0.05 0.20 0.64 0.75 0.56 0.47 0.84 0.69 0.45 0.31 0.17 0.05 0.00 0.00 0.00 0.00 0.00 0.00 0.00 0.01 0.00 0.00 0.00 0.00 0.00 0.00 0.00 0.00 0.05 0.05 0.04 0.05 0.08 0.16 0.06 0.16 0.35 0.48 0.34
0.08 0.09 0.09 0.08 0.05 0.02 0.02 0.02 0.04 0.20 0.47 0.44 0.25 0.74 1.53 0.78 0.22 0.07 0.07 0.05 0.01 0.00 0.00 0.00 0.00 0.01 0.02 0.02 0.00 0.00 0.00 0.00 0.00 0.00 0.00 0.01 0.05 0.07 0.12 0.18 0.43 0.39 0.14 0.29 0.64 0.64 0.12
0.08 0.09 0.08 0.07 0.05 0.02 0.01 0.01 0.03 0.23 0.17 0.13 0.09 0.28 0.49 0.46 0.20 0.03 0.03 0.04 0.01 0.00 0.00 0.00 0.01 0.02 0.04 0.02 0.01 0.00 0.00 0.00 0.00 0.00 0.00 0.05 0.11 0.11 0.15 0.17 0.56 0.41 0.19 0.24 0.50 0.21 0.16
0.07 0.09 0.07 0.06 0.04 0.01 0.01 0.01 0.04 0.25 0.16 0.10 0.14 0.18 0.09 0.03 0.02 0.01 0.01 0.02 0.00 0.00 0.00 0.00 0.00 0.04 0.04 0.03 0.01 0.00 0.00 0.00 0.00 0.00 0.03 0.10 0.13 0.13 0.14 0.13 0.25 0.27 0.08 0.10 0.06 0.03 0.04
0.07 0.06 0.09 0.07 0.02 0.01 0.01 0.01 0.02 0.17 0.30 0.20 0.32 0.23 0.06 0.06 0.02 0.01 0.00 0.00 0.00 0.00 0.00 0.00 0.00 0.05 0.02 0.02 0.01 0.01 0.00 0.00 0.00 0.01 0.03 0.08 0.13 0.28 0.22 0.18 0.11 0.20 0.14 0.06 0.02 0.03 0.03
0.06 0.05 0.08 0.05 0.02 0.01 0.01 0.01 0.01 0.12 0.33 0.38 0.35 0.30 0.07 0.10 0.03 0.01 0.00 0.02 0.01 0.01 0.00 0.00 0.00 0.01 0.01 0.02 0.03 0.01 0.01 0.00 0.01 0.01 0.00 0.02 0.15 0.27 0.23 0.24 0.34 0.31 0.15 0.03 0.04 0.05 0.02
0.05 0.05 0.07 0.04 0.01 0.01 0.01 0.00 0.01 0.07 0.14 0.25 0.27 0.34 0.10 0.02 0.01 0.01 0.01 0.01 0.04 0.05 0.02 0.02 0.00 0.00 0.02 0.08 0.08 0.01 0.00 0.00 0.00 0.00 0.01 0.01 0.07 0.18 0.17 0.19 0.20 0.08 0.12 0.12 0.06 0.07 0.03
0.04 0.05 0.05 0.03 0.02 0.01 0.01 0.00 0.00 0.04 0.07 0.20 0.28 0.43 0.11 0.02 0.00 0.00 0.00 0.00 0.02 0.03 0.03 0.05 0.02 0.01 0.03 0.14 0.12 0.04 0.00 0.00 0.00 0.00 0.00 0.00 0.01 0.10 0.07 0.10 0.00 0.02 0.05 0.03 0.01 0.04 0.01
0.03 0.04 0.04 0.02 0.02 0.01 0.01 0.00 0.00 0.02 0.04 0.12 0.31 0.30 0.04 0.02 0.00 0.00 0.00 0.00 0.00 0.01 0.04 0.05 0.03 0.02 0.07 0.16 0.12 0.04 0.01 0.00 0.00 0.00 0.00 0.00 0.03 0.06 0.06 0.11 0.00 0.00 0.00 0.00 0.00 0.01 0.00
0.02 0.02 0.03 0.02 0.02 0.01 0.01 0.00 0.00 0.02 0.04 0.09 0.25 0.24 0.11 0.02 0.01 0.00 0.00 0.00 0.00 0.00 0.01 0.01 0.01 0.03 0.13 0.16 0.11 0.04 0.01 0.00 0.00 0.00 0.00 0.00 0.00 0.01 0.01 0.03 0.00 0.00 0.00 0.00 0.00 0.00 0.00
0.02 0.01 0.02 0.02 0.01 0.01 0.00 0.00 0.00 0.02 0.05 0.06 0.24 0.10 0.06 0.01 0.00 0.00 0.00 0.00 0.00 0.00 0.00 0.02 0.03 0.06 0.13 0.11 0.12 0.10 0.04 0.00 0.00 0.00 0.00 0.00 0.00 0.00 0.00 0.00 0.00 0.00 0.00 0.00 0.00 0.00 0.00